User: anonymous   Login
Location: Unspecified
(0.0000°N, 0.0000°E)
Time: 09:21:50
(UTC+00:00)
Language:

DICE 2 - Orbit

View from above orbital plane
View from above orbital plane
View from above satellite
View from above satellite

Ground track
Ground track

The orbit data is extracted from the following two-line orbital elements,

1 37852U 11061C   17086.74513369 +.00002362 +00000-0 +13288-3 0  9992
2 37852 101.7275 278.7304 0172867 318.9383 039.8920 15.03573896294145
Epoch (UTC): 27 March 2017 17:52:59
Eccentricity: 0.0172867
inclination: 101.7275°
perigee height: 436 km
apogee height: 676 km
right ascension of ascending node: 278.7304°
argument of perigee: 318.9383°
revolutions per day: 15.03573896
mean anomaly at epoch: 39.8920°
orbit number at epoch: 29414

The dashed part of the orbit path shows where the satellite is in the earth's shadow,  

DLR